Terminal Aerodrome Forecast
Issued by NWS

Home | Current Version | Previous Version | Text Only | Print | Product List | Glossary On
Versions: 1 2 3 4 5 6 7 8 9 10 11 12 13 14 15 16 17 18 19 20 21
413
FTUS46 KSEW 140216 AAA
TAFCLM
TAF AMD
KCLM 140216Z 1402/1424 VRB03KT 6SM -RA BR SCT008 OVC050
      TEMPO 1402/1405 4SM -RA BR BKN008 OVC035
     FM141100 VRB03KT P6SM -RA SCT010 BKN030 OVC050
     FM141600 28009KT P6SM VCSH SCT030 BKN090=

USA.gov is the U.S. government's official web portal to all federal, state and local government web resources and services.